Location: Zagreb
(45.8000°N, 16.0000°E)
Time: 03:50:05
(UTC+02:00)

ISS - Visible Passes

Search period start: 16 April 2026 00:00
Search period end: 26 April 2026 00:00
Orbit: 415 x 424 km, 51.6° (Epoch: 15 April)

Date Brightness Start Highest point End Pass type
(mag) Time Alt. Az. Time Alt. Az. Time Alt. Az.
16 Apr -0.8 05:26:16 10° SE 05:26:55 10° SE 05:27:33 10° ESE visible
18 Apr -2.0 05:25:40 10° SSW 05:28:33 26° SE 05:31:26 10° E visible
19 Apr -1.4 04:39:06 10° S 04:41:18 17° SE 04:43:35 10° E visible
20 Apr -1.0 03:53:39 10° SE 03:54:07 11° SE 03:54:50 10° ESE visible
20 Apr -3.5 05:27:00 10° SW 05:30:21 66° SSE 05:33:42 10° ENE visible
21 Apr -2.9 04:41:05 20° SSW 04:42:59 42° SE 04:46:12 10° ENE visible
22 Apr -2.3 03:55:29 26° SE 03:55:40 27° SE 03:58:33 10° E visible
23 Apr -1.1 03:09:48 14° ESE 03:09:48 14° ESE 03:10:40 10° E visible
23 Apr -3.8 04:42:45 22° WSW 04:44:49 82° NNW 04:48:13 10° ENE visible
24 Apr -3.8 03:57:01 61° S 03:57:22 67° SSE 04:00:44 10° ENE visible
25 Apr -2.0 03:11:14 28° E 03:11:14 28° E 03:13:11 10° ENE visible
25 Apr -2.9 04:44:11 14° W 04:46:48 43° NNW 04:50:03 10° NE visible
